Year,Month,Day,Hour,Minute,Value (Times are PST for temperature in C)
2015,11,26,00,00,-1.00
2015,11,26,00,01,-0.90
2015,11,26,00,02,-0.90
2015,11,26,00,03,-0.90
2015,11,26,00,04,-1.00
2015,11,26,00,05,-1.00
2015,11,26,00,06,-1.00
2015,11,26,00,07,-1.00
2015,11,26,00,08,-1.10
2015,11,26,00,09,-1.10
2015,11,26,00,10,-1.10
2015,11,26,00,11,-1.10
2015,11,26,00,12,-1.20
2015,11,26,00,13,-1.20
2015,11,26,00,14,-1.20
2015,11,26,00,15,-1.30
2015,11,26,00,16,-1.30
2015,11,26,00,17,-1.40
2015,11,26,00,18,-1.40
2015,11,26,00,19,-1.50
2015,11,26,00,20,-1.50
2015,11,26,00,21,-1.50
2015,11,26,00,22,-1.60
2015,11,26,00,23,-1.60
2015,11,26,00,24,-1.60
2015,11,26,00,25,-1.70
2015,11,26,00,26,-1.70
2015,11,26,00,27,-1.70
2015,11,26,00,28,-1.70
2015,11,26,00,29,-1.80
2015,11,26,00,30,-1.80
2015,11,26,00,31,-1.80
2015,11,26,00,32,-1.80
2015,11,26,00,33,-1.90
2015,11,26,00,34,-1.90
2015,11,26,00,35,-1.90
2015,11,26,00,36,-1.90
2015,11,26,00,37,-1.90
2015,11,26,00,38,-1.90
2015,11,26,00,39,-2.00
2015,11,26,00,40,-2.00
2015,11,26,00,41,-2.00
2015,11,26,00,42,-2.00
2015,11,26,00,43,-2.00
2015,11,26,00,44,-2.00
2015,11,26,00,45,-2.00
2015,11,26,00,46,-2.00
2015,11,26,00,47,-2.10
2015,11,26,00,48,-2.10
2015,11,26,00,49,-2.10
2015,11,26,00,50,-2.10
2015,11,26,00,51,-2.10
2015,11,26,00,52,-2.10
2015,11,26,00,53,-2.10
2015,11,26,00,54,-2.10
2015,11,26,00,55,-2.10
2015,11,26,00,56,-2.10
2015,11,26,00,57,-2.10
2015,11,26,00,58,-2.10
2015,11,26,00,59,-2.10
2015,11,26,01,00,-2.10
2015,11,26,01,01,-2.10
2015,11,26,01,02,-2.10
2015,11,26,01,03,-2.10
2015,11,26,01,04,-2.10
2015,11,26,01,05,-2.10
2015,11,26,01,06,-2.10
2015,11,26,01,07,-2.10
2015,11,26,01,08,-2.10
2015,11,26,01,09,-2.10
2015,11,26,01,10,-2.20
2015,11,26,01,11,-2.20
2015,11,26,01,12,-2.10
2015,11,26,01,13,-2.10
2015,11,26,01,14,-2.10
2015,11,26,01,15,-2.10
2015,11,26,01,16,-2.10
2015,11,26,01,17,-2.20
2015,11,26,01,18,-2.20
2015,11,26,01,19,-2.20
2015,11,26,01,20,-2.20
2015,11,26,01,21,-2.20
2015,11,26,01,22,-2.20
2015,11,26,01,23,-2.20
2015,11,26,01,24,-2.20
2015,11,26,01,25,-2.20
2015,11,26,01,26,-2.20
2015,11,26,01,27,-2.20
2015,11,26,01,28,-2.20
2015,11,26,01,29,-2.20
2015,11,26,01,30,-2.20
2015,11,26,01,31,-2.20
2015,11,26,01,32,-2.20
2015,11,26,01,33,-2.10
2015,11,26,01,34,-2.10
2015,11,26,01,35,-2.10
2015,11,26,01,36,-2.10
2015,11,26,01,37,-2.10
2015,11,26,01,38,-2.10
2015,11,26,01,39,-2.10
2015,11,26,01,40,-2.10
2015,11,26,01,41,-2.10
2015,11,26,01,42,-2.10
2015,11,26,01,43,-2.00
2015,11,26,01,44,-2.00
2015,11,26,01,45,-2.00
2015,11,26,01,46,-2.00
2015,11,26,01,47,-2.00
2015,11,26,01,48,-2.00
2015,11,26,01,49,-2.00
2015,11,26,01,50,-2.00
2015,11,26,01,51,-2.00
2015,11,26,01,52,-2.10
2015,11,26,01,53,-2.10
2015,11,26,01,54,-2.10
2015,11,26,01,55,-2.10
2015,11,26,01,56,-2.20
2015,11,26,01,57,-2.20
2015,11,26,01,58,-2.20
2015,11,26,01,59,-2.20
2015,11,26,02,00,-2.20
2015,11,26,02,01,-2.20
2015,11,26,02,02,-2.30
2015,11,26,02,03,-2.30
2015,11,26,02,04,-2.30
2015,11,26,02,05,-2.30
2015,11,26,02,06,-2.30
2015,11,26,02,07,-2.30
2015,11,26,02,08,-2.30
2015,11,26,02,09,-2.30
2015,11,26,02,10,-2.30
2015,11,26,02,11,-2.30
2015,11,26,02,12,-2.30
2015,11,26,02,13,-2.40
2015,11,26,02,14,-2.40
2015,11,26,02,15,-2.30
2015,11,26,02,16,-2.40
2015,11,26,02,17,-2.40
2015,11,26,02,18,-2.40
2015,11,26,02,19,-2.40
2015,11,26,02,20,-2.30
2015,11,26,02,21,-2.30
2015,11,26,02,22,-2.30
2015,11,26,02,23,-2.30
2015,11,26,02,24,-2.30
2015,11,26,02,25,-2.30
2015,11,26,02,26,-2.30
2015,11,26,02,27,-2.30
2015,11,26,02,28,-2.30
2015,11,26,02,29,-2.30
2015,11,26,02,30,-2.30
2015,11,26,02,31,-2.30
2015,11,26,02,32,-2.30
2015,11,26,02,33,-2.30
2015,11,26,02,34,-2.30
2015,11,26,02,35,-2.30
2015,11,26,02,36,-2.30
2015,11,26,02,37,-2.30
2015,11,26,02,38,-2.30
2015,11,26,02,39,-2.30
2015,11,26,02,40,-2.30
2015,11,26,02,41,-2.30
2015,11,26,02,42,-2.30
2015,11,26,02,43,-2.30
2015,11,26,02,44,-2.40
2015,11,26,02,45,-2.40
2015,11,26,02,46,-2.40
2015,11,26,02,47,-2.40
2015,11,26,02,48,-2.40
2015,11,26,02,49,-2.40
2015,11,26,02,50,-2.40
2015,11,26,02,51,-2.40
2015,11,26,02,52,-2.40
2015,11,26,02,53,-2.40
2015,11,26,02,54,-2.40
2015,11,26,02,55,-2.40
2015,11,26,02,56,-2.40
2015,11,26,02,57,-2.40
2015,11,26,02,58,-2.40
2015,11,26,02,59,-2.40
2015,11,26,03,00,-2.40
2015,11,26,03,01,-2.40
2015,11,26,03,02,-2.40
2015,11,26,03,03,-2.40
2015,11,26,03,04,-2.40
2015,11,26,03,05,-2.40
2015,11,26,03,06,-2.40
2015,11,26,03,07,-2.50
2015,11,26,03,08,-2.50
2015,11,26,03,09,-2.50
2015,11,26,03,10,-2.50
2015,11,26,03,11,-2.50
2015,11,26,03,12,-2.60
2015,11,26,03,13,-2.60
2015,11,26,03,14,-2.60
2015,11,26,03,15,-2.60
2015,11,26,03,16,-2.60
2015,11,26,03,17,-2.60
2015,11,26,03,18,-2.60
2015,11,26,03,19,-2.60
2015,11,26,03,20,-2.60
2015,11,26,03,21,-2.60
2015,11,26,03,22,-2.60
2015,11,26,03,23,-2.50
2015,11,26,03,24,-2.50
2015,11,26,03,25,-2.40
2015,11,26,03,26,-2.40
2015,11,26,03,27,-2.40
2015,11,26,03,28,-2.40
2015,11,26,03,29,-2.40
2015,11,26,03,30,-2.30
2015,11,26,03,31,-2.30
2015,11,26,03,32,-2.40
2015,11,26,03,33,-2.40
2015,11,26,03,34,-2.40
2015,11,26,03,35,-2.40
2015,11,26,03,36,-2.50
2015,11,26,03,37,-2.50
2015,11,26,03,38,-2.60
2015,11,26,03,39,-2.60
2015,11,26,03,40,-2.60
2015,11,26,03,41,-2.60
2015,11,26,03,42,-2.70
2015,11,26,03,43,-2.70
2015,11,26,03,44,-2.70
2015,11,26,03,45,-2.70
2015,11,26,03,46,-2.70
2015,11,26,03,47,-2.80
2015,11,26,03,48,-2.80
2015,11,26,03,49,-2.80
2015,11,26,03,50,-2.80
2015,11,26,03,51,-2.80
2015,11,26,03,52,-2.80
2015,11,26,03,53,-2.90
2015,11,26,03,54,-2.90
2015,11,26,03,55,-2.90
2015,11,26,03,56,-2.90
2015,11,26,03,57,-2.90
2015,11,26,03,58,-2.90
2015,11,26,03,59,-2.90
2015,11,26,04,00,-2.90
2015,11,26,04,01,-3.00
2015,11,26,04,02,-3.00
2015,11,26,04,03,-2.90
2015,11,26,04,04,-2.90
2015,11,26,04,05,-2.90
2015,11,26,04,06,-2.90
2015,11,26,04,07,-3.00
2015,11,26,04,08,-3.00
2015,11,26,04,09,-3.00
2015,11,26,04,10,-3.00
2015,11,26,04,11,-3.00
2015,11,26,04,12,-3.10
2015,11,26,04,13,-3.10
2015,11,26,04,14,-3.10
2015,11,26,04,15,-3.10
2015,11,26,04,16,-3.10
2015,11,26,04,17,-3.10
2015,11,26,04,18,-3.10
2015,11,26,04,19,-3.10
2015,11,26,04,20,-3.10
2015,11,26,04,21,-3.10
2015,11,26,04,22,-3.20
2015,11,26,04,23,-3.20
2015,11,26,04,24,-3.20
2015,11,26,04,25,-3.20
2015,11,26,04,26,-3.20
2015,11,26,04,27,-3.20
2015,11,26,04,28,-3.20
2015,11,26,04,29,-3.20
2015,11,26,04,30,-3.20
2015,11,26,04,31,-3.20
2015,11,26,04,32,-3.20
2015,11,26,04,33,-3.10
2015,11,26,04,34,-3.10
2015,11,26,04,35,-3.10
2015,11,26,04,36,-3.10
2015,11,26,04,37,-3.10
2015,11,26,04,38,-3.10
2015,11,26,04,39,-3.20
2015,11,26,04,40,-3.20
2015,11,26,04,41,-3.20
2015,11,26,04,42,-3.20
2015,11,26,04,43,-3.20
2015,11,26,04,44,-3.20
2015,11,26,04,45,-3.20
2015,11,26,04,46,-3.30
2015,11,26,04,47,-3.30
2015,11,26,04,48,-3.30
2015,11,26,04,49,-3.30
2015,11,26,04,50,-3.30
2015,11,26,04,51,-3.30
2015,11,26,04,52,-3.30
2015,11,26,04,53,-3.30
2015,11,26,04,54,-3.30
2015,11,26,04,55,-3.30
2015,11,26,04,56,-3.30
2015,11,26,04,57,-3.40
2015,11,26,04,58,-3.40
2015,11,26,04,59,-3.40
2015,11,26,05,00,-3.40
2015,11,26,05,01,-3.40
2015,11,26,05,02,-3.40
2015,11,26,05,03,-3.40
2015,11,26,05,04,-3.40
2015,11,26,05,05,-3.40
2015,11,26,05,06,-3.40
2015,11,26,05,07,-3.30
2015,11,26,05,08,-3.20
2015,11,26,05,09,-3.10
2015,11,26,05,10,-3.00
2015,11,26,05,11,-2.80
2015,11,26,05,12,-2.70
2015,11,26,05,13,-2.60
2015,11,26,05,14,-2.50
2015,11,26,05,15,-2.50
2015,11,26,05,16,-2.40
2015,11,26,05,17,-2.30
2015,11,26,05,18,-2.20
2015,11,26,05,19,-2.20
2015,11,26,05,20,-2.20
2015,11,26,05,21,-2.20
2015,11,26,05,22,-2.20
2015,11,26,05,23,-2.20
2015,11,26,05,24,-2.20
2015,11,26,05,25,-2.20
2015,11,26,05,26,-2.20
2015,11,26,05,27,-2.30
2015,11,26,05,28,-2.30
2015,11,26,05,29,-2.30
2015,11,26,05,30,-2.30
2015,11,26,05,31,-2.30
2015,11,26,05,32,-2.30
2015,11,26,05,33,-2.40
2015,11,26,05,34,-2.40
2015,11,26,05,35,-2.40
2015,11,26,05,36,-2.50
2015,11,26,05,37,-2.50
2015,11,26,05,38,-2.50
2015,11,26,05,39,-2.50
2015,11,26,05,40,-2.60
2015,11,26,05,41,-2.60
2015,11,26,05,42,-2.60
2015,11,26,05,43,-2.70
2015,11,26,05,44,-2.70
2015,11,26,05,45,-2.70
2015,11,26,05,46,-2.80
2015,11,26,05,47,-2.80
2015,11,26,05,48,-2.80
2015,11,26,05,49,-2.80
2015,11,26,05,50,-2.80
2015,11,26,05,51,-2.80
2015,11,26,05,52,-2.90
2015,11,26,05,53,-2.90
2015,11,26,05,54,-2.90
2015,11,26,05,55,-2.90
2015,11,26,05,56,-2.90
2015,11,26,05,57,-3.00
2015,11,26,05,58,-3.00
2015,11,26,05,59,-3.00
2015,11,26,06,00,-3.00
2015,11,26,06,01,-3.00
2015,11,26,06,02,-3.00
2015,11,26,06,03,-3.00
2015,11,26,06,04,-3.00
2015,11,26,06,05,-3.00
2015,11,26,06,06,-3.10
2015,11,26,06,07,-3.10
2015,11,26,06,08,-3.10
2015,11,26,06,09,-3.10
2015,11,26,06,10,-3.10
2015,11,26,06,11,-3.20
2015,11,26,06,12,-3.20
2015,11,26,06,13,-3.20
2015,11,26,06,14,-3.10
2015,11,26,06,15,-3.10
2015,11,26,06,16,-3.10
2015,11,26,06,17,-3.10
2015,11,26,06,18,-3.20
2015,11,26,06,19,-3.20
2015,11,26,06,20,-3.20
2015,11,26,06,21,-3.20
2015,11,26,06,22,-3.20
2015,11,26,06,23,-3.20
2015,11,26,06,24,-3.20
2015,11,26,06,25,-3.20
2015,11,26,06,26,-3.30
2015,11,26,06,27,-3.30
2015,11,26,06,28,-3.30
2015,11,26,06,29,-3.30
2015,11,26,06,30,-3.30
2015,11,26,06,31,-3.30
2015,11,26,06,32,-3.30
2015,11,26,06,33,-3.30
2015,11,26,06,34,-3.30
2015,11,26,06,35,-3.30
2015,11,26,06,36,-3.30
2015,11,26,06,37,-3.30
2015,11,26,06,38,-3.30
2015,11,26,06,39,-3.30
2015,11,26,06,40,-3.30
2015,11,26,06,41,-3.30
2015,11,26,06,42,-3.30
2015,11,26,06,43,-3.30
2015,11,26,06,44,-3.20
2015,11,26,06,45,-3.20
2015,11,26,06,46,-3.20
2015,11,26,06,47,-3.20
2015,11,26,06,48,-3.20
2015,11,26,06,49,-3.20
2015,11,26,06,50,-3.10
2015,11,26,06,51,-3.10
2015,11,26,06,52,-3.00
2015,11,26,06,53,-2.90
2015,11,26,06,54,-2.90
2015,11,26,06,55,-2.80
2015,11,26,06,56,-2.80
2015,11,26,06,57,-2.80
2015,11,26,06,58,-2.80
2015,11,26,06,59,-2.80
2015,11,26,07,00,-2.80
2015,11,26,07,01,-2.90
2015,11,26,07,02,-2.90
2015,11,26,07,03,-2.80
2015,11,26,07,04,-2.80
2015,11,26,07,05,-2.80
2015,11,26,07,06,-2.80
2015,11,26,07,07,-2.70
2015,11,26,07,08,-2.70
2015,11,26,07,09,-2.60
2015,11,26,07,10,-2.60
2015,11,26,07,11,-2.60
2015,11,26,07,12,-2.60
2015,11,26,07,13,-2.60
2015,11,26,07,14,-2.60
2015,11,26,07,15,-2.60
2015,11,26,07,16,-2.70
2015,11,26,07,17,-2.70
2015,11,26,07,18,-2.80
2015,11,26,07,19,-2.80
2015,11,26,07,20,-2.80
2015,11,26,07,21,-2.90
2015,11,26,07,22,-3.00
2015,11,26,07,23,-3.00
2015,11,26,07,24,-3.10
2015,11,26,07,25,-3.20
2015,11,26,07,26,-3.20
2015,11,26,07,27,-3.20
2015,11,26,07,28,-3.20
2015,11,26,07,29,-3.30
2015,11,26,07,30,-3.30
2015,11,26,07,31,-3.30
2015,11,26,07,32,-3.30
2015,11,26,07,33,-3.30
2015,11,26,07,34,-3.30
2015,11,26,07,35,-3.40
2015,11,26,07,36,-3.30
2015,11,26,07,37,-3.30
2015,11,26,07,38,-3.30
2015,11,26,07,39,-3.30
2015,11,26,07,40,-3.30
2015,11,26,07,41,-3.20
2015,11,26,07,42,-3.20
2015,11,26,07,43,-3.20
2015,11,26,07,44,-3.20
2015,11,26,07,45,-3.10
2015,11,26,07,46,-3.10
2015,11,26,07,47,-3.00
2015,11,26,07,48,-2.90
2015,11,26,07,49,-2.90
2015,11,26,07,50,-2.90
2015,11,26,07,51,-2.90
2015,11,26,07,52,-2.90
2015,11,26,07,53,-2.90
2015,11,26,07,54,-2.90
2015,11,26,07,55,-2.90
2015,11,26,07,56,-2.90
2015,11,26,07,57,-2.90
2015,11,26,07,58,-2.90
2015,11,26,07,59,-3.00
2015,11,26,08,00,-3.00
2015,11,26,08,01,-3.00
2015,11,26,08,02,-3.00
2015,11,26,08,03,-3.00
2015,11,26,08,04,-3.00
2015,11,26,08,05,-3.10
2015,11,26,08,06,-3.10
2015,11,26,08,07,-3.10
2015,11,26,08,08,-3.00
2015,11,26,08,09,-3.00
2015,11,26,08,10,-3.00
2015,11,26,08,11,-3.00
2015,11,26,08,12,-2.90
2015,11,26,08,13,-2.90
2015,11,26,08,14,-2.90
2015,11,26,08,15,-2.90
2015,11,26,08,16,-2.90
2015,11,26,08,17,-2.80
2015,11,26,08,18,-2.80
2015,11,26,08,19,-2.80
2015,11,26,08,20,-2.80
2015,11,26,08,21,-2.70
2015,11,26,08,22,-2.70
2015,11,26,08,23,-2.70
2015,11,26,08,24,-2.60
2015,11,26,08,25,-2.60
2015,11,26,08,26,-2.60
2015,11,26,08,27,-2.50
2015,11,26,08,28,-2.50
2015,11,26,08,29,-2.50
2015,11,26,08,30,-2.50
2015,11,26,08,31,-2.50
2015,11,26,08,32,-2.40
2015,11,26,08,33,-2.40
2015,11,26,08,34,-2.40
2015,11,26,08,35,-2.40
2015,11,26,08,36,-2.40
2015,11,26,08,37,-2.40
2015,11,26,08,38,-2.40
2015,11,26,08,39,-2.40
2015,11,26,08,40,-2.40
2015,11,26,08,41,-2.30
2015,11,26,08,42,-2.30
2015,11,26,08,43,-2.30
2015,11,26,08,44,-2.30
2015,11,26,08,45,-2.30
2015,11,26,08,46,-2.20
2015,11,26,08,47,-2.20
2015,11,26,08,48,-2.20
2015,11,26,08,49,-2.20
2015,11,26,08,50,-2.10
2015,11,26,08,51,-2.10
2015,11,26,08,52,-2.10
2015,11,26,08,53,-2.00
2015,11,26,08,54,-2.00
2015,11,26,08,55,-1.90
2015,11,26,08,56,-1.90
2015,11,26,08,57,-1.90
2015,11,26,08,58,-1.80
2015,11,26,08,59,-1.80
2015,11,26,09,00,-1.80
2015,11,26,09,01,-1.80
2015,11,26,09,02,-1.70
2015,11,26,09,03,-1.70
2015,11,26,09,04,-1.70
2015,11,26,09,05,-1.70
2015,11,26,09,06,-1.60
2015,11,26,09,07,-1.50
2015,11,26,09,08,-1.50
2015,11,26,09,09,-1.40
2015,11,26,09,10,-1.40
2015,11,26,09,11,-1.30
2015,11,26,09,12,-1.30
2015,11,26,09,13,-1.30
2015,11,26,09,14,-1.20
2015,11,26,09,15,-1.20
2015,11,26,09,16,-1.10
2015,11,26,09,17,-1.10
2015,11,26,09,18,-1.00
2015,11,26,09,19,-1.00
2015,11,26,09,20,-0.90
2015,11,26,09,21,-0.80
2015,11,26,09,22,-0.80
2015,11,26,09,23,-0.80
2015,11,26,09,24,-0.70
2015,11,26,09,25,-0.70
2015,11,26,09,26,-0.70
2015,11,26,09,27,-0.70
2015,11,26,09,28,-0.60
2015,11,26,09,29,-0.60
2015,11,26,09,30,-0.60
2015,11,26,09,31,-0.60
2015,11,26,09,32,-0.60
2015,11,26,09,33,-0.60
2015,11,26,09,34,-0.60
2015,11,26,09,35,-0.60
2015,11,26,09,36,-0.60
2015,11,26,09,37,-0.60
2015,11,26,09,38,-0.50
2015,11,26,09,39,-0.50
2015,11,26,09,40,-0.40
2015,11,26,09,41,-0.40
2015,11,26,09,42,-0.30
2015,11,26,09,43,-0.20
2015,11,26,09,44,-0.10
2015,11,26,09,45,0.00
2015,11,26,09,46,0.10
2015,11,26,09,47,0.20
2015,11,26,09,48,0.20
2015,11,26,09,49,0.30
2015,11,26,09,50,0.30
2015,11,26,09,51,0.30
2015,11,26,09,52,0.40
2015,11,26,09,53,0.40
2015,11,26,09,54,0.40
2015,11,26,09,55,0.50
2015,11,26,09,56,0.50
2015,11,26,09,57,0.50
2015,11,26,09,58,0.50
2015,11,26,09,59,0.50
2015,11,26,10,00,0.60
2015,11,26,10,01,0.60
2015,11,26,10,02,0.60
2015,11,26,10,03,0.60
2015,11,26,10,04,0.70
2015,11,26,10,05,0.80
2015,11,26,10,06,0.80
2015,11,26,10,07,0.90
2015,11,26,10,08,0.90
2015,11,26,10,09,1.00
2015,11,26,10,10,1.10
2015,11,26,10,11,1.10
2015,11,26,10,12,1.20
2015,11,26,10,13,1.30
2015,11,26,10,14,1.30
2015,11,26,10,15,1.40
2015,11,26,10,16,1.50
2015,11,26,10,17,1.50
2015,11,26,10,18,1.70
2015,11,26,10,19,1.70
2015,11,26,10,20,1.80
2015,11,26,10,21,1.90
2015,11,26,10,22,2.00
2015,11,26,10,23,2.10
2015,11,26,10,24,2.20
2015,11,26,10,25,2.30
2015,11,26,10,26,2.30
2015,11,26,10,27,2.40
2015,11,26,10,28,2.50
2015,11,26,10,29,2.60
2015,11,26,10,30,2.70
2015,11,26,10,31,2.80
2015,11,26,10,32,3.00
2015,11,26,10,33,3.10
2015,11,26,10,34,3.20
2015,11,26,10,35,3.20
2015,11,26,10,36,3.30
2015,11,26,10,37,3.30
2015,11,26,10,38,3.40
2015,11,26,10,39,3.40
2015,11,26,10,40,3.40
2015,11,26,10,41,3.50
2015,11,26,10,42,3.50
2015,11,26,10,43,3.60
2015,11,26,10,44,3.60
2015,11,26,10,45,3.60
2015,11,26,10,46,3.70
2015,11,26,10,47,3.70
2015,11,26,10,48,3.70
2015,11,26,10,49,3.70
2015,11,26,10,50,3.70
2015,11,26,10,51,3.70
2015,11,26,10,52,3.70
2015,11,26,10,53,3.70
2015,11,26,10,54,3.70
2015,11,26,10,55,3.70
2015,11,26,10,56,3.80
2015,11,26,10,57,3.80
2015,11,26,10,58,3.80
2015,11,26,10,59,3.80
2015,11,26,11,00,4.00
2015,11,26,11,01,4.10
2015,11,26,11,02,4.20
2015,11,26,11,03,4.30
2015,11,26,11,04,4.40
2015,11,26,11,05,4.40
2015,11,26,11,06,4.50
2015,11,26,11,07,4.50
2015,11,26,11,08,4.50
2015,11,26,11,09,4.60
2015,11,26,11,10,4.60
2015,11,26,11,11,4.60
2015,11,26,11,12,4.60
2015,11,26,11,13,4.60
2015,11,26,11,14,4.60
2015,11,26,11,15,4.70
2015,11,26,11,16,4.70
2015,11,26,11,17,4.80
2015,11,26,11,18,4.90
2015,11,26,11,19,4.90
2015,11,26,11,20,5.00
2015,11,26,11,21,5.10
2015,11,26,11,22,5.20
2015,11,26,11,23,5.20
2015,11,26,11,24,5.30
2015,11,26,11,25,5.30
2015,11,26,11,26,5.40
2015,11,26,11,27,5.40
2015,11,26,11,28,5.40
2015,11,26,11,29,5.50
2015,11,26,11,30,5.50
2015,11,26,11,31,5.60
2015,11,26,11,32,5.60
2015,11,26,11,33,5.60
2015,11,26,11,34,5.70
2015,11,26,11,35,5.70
2015,11,26,11,36,5.70
2015,11,26,11,37,5.70
2015,11,26,11,38,5.80
2015,11,26,11,39,5.80
2015,11,26,11,40,5.80
2015,11,26,11,41,5.80
2015,11,26,11,42,5.80
2015,11,26,11,43,5.80
2015,11,26,11,44,5.90
2015,11,26,11,45,5.90
2015,11,26,11,46,5.90
2015,11,26,11,47,5.90
2015,11,26,11,48,5.90
2015,11,26,11,49,6.00
2015,11,26,11,50,6.00
2015,11,26,11,51,6.00
2015,11,26,11,52,6.00
2015,11,26,11,53,6.00
2015,11,26,11,54,6.10
2015,11,26,11,55,6.10
2015,11,26,11,56,6.10
2015,11,26,11,57,6.10
2015,11,26,11,58,6.10
2015,11,26,11,59,6.20
2015,11,26,12,00,6.20
2015,11,26,12,01,6.20
2015,11,26,12,02,6.20
2015,11,26,12,03,6.20
2015,11,26,12,04,6.30
2015,11,26,12,05,6.30
2015,11,26,12,06,6.30
2015,11,26,12,07,6.30
2015,11,26,12,08,6.40
2015,11,26,12,09,6.40
2015,11,26,12,10,6.40
2015,11,26,12,11,6.40
2015,11,26,12,12,6.50
2015,11,26,12,13,6.50
2015,11,26,12,14,6.50
2015,11,26,12,15,6.60
2015,11,26,12,16,6.60
2015,11,26,12,17,6.60
2015,11,26,12,18,6.60
2015,11,26,12,19,6.50
2015,11,26,12,20,6.50
2015,11,26,12,21,6.50
2015,11,26,12,22,6.50
2015,11,26,12,23,6.50
2015,11,26,12,24,6.50
2015,11,26,12,25,6.50
2015,11,26,12,26,6.50
2015,11,26,12,27,6.50
2015,11,26,12,28,6.50
2015,11,26,12,29,6.40
2015,11,26,12,30,6.40
2015,11,26,12,31,6.40
2015,11,26,12,32,6.40
2015,11,26,12,33,6.40
2015,11,26,12,34,6.40
2015,11,26,12,35,6.40
2015,11,26,12,36,6.30
2015,11,26,12,37,6.30
2015,11,26,12,38,6.20
2015,11,26,12,39,6.20
2015,11,26,12,40,6.10
2015,11,26,12,41,6.10
2015,11,26,12,42,6.20
2015,11,26,12,43,6.20
2015,11,26,12,44,6.20
2015,11,26,12,45,6.20
2015,11,26,12,46,6.20
2015,11,26,12,47,6.20
2015,11,26,12,48,6.20
2015,11,26,12,49,6.20
2015,11,26,12,50,6.10
2015,11,26,12,51,6.20
2015,11,26,12,52,6.20
2015,11,26,12,53,6.20
2015,11,26,12,54,6.20
2015,11,26,12,55,6.30
2015,11,26,12,56,6.30
2015,11,26,12,57,6.30
2015,11,26,12,58,6.30
2015,11,26,12,59,6.30
2015,11,26,13,00,6.30
2015,11,26,13,01,6.20
2015,11,26,13,02,6.20
2015,11,26,13,03,6.30
2015,11,26,13,04,6.30
2015,11,26,13,05,6.30
2015,11,26,13,06,6.30
2015,11,26,13,07,6.30
2015,11,26,13,08,6.30
2015,11,26,13,09,6.30
2015,11,26,13,10,6.30
2015,11,26,13,11,6.30
2015,11,26,13,12,6.40
2015,11,26,13,13,6.40
2015,11,26,13,14,6.40
2015,11,26,13,15,6.40
2015,11,26,13,16,6.40
2015,11,26,13,17,6.40
2015,11,26,13,18,6.50
2015,11,26,13,19,6.50
2015,11,26,13,20,6.60
2015,11,26,13,21,6.70
2015,11,26,13,22,6.70
2015,11,26,13,23,6.80
2015,11,26,13,24,6.80
2015,11,26,13,25,6.80
2015,11,26,13,26,6.80
2015,11,26,13,27,6.90
2015,11,26,13,28,6.90
2015,11,26,13,29,6.90
2015,11,26,13,30,7.00
2015,11,26,13,31,7.00
2015,11,26,13,32,7.00
2015,11,26,13,33,7.00
2015,11,26,13,34,7.00
2015,11,26,13,35,7.00
2015,11,26,13,36,7.00
2015,11,26,13,37,7.00
2015,11,26,13,38,7.00
2015,11,26,13,39,7.00
2015,11,26,13,40,7.00
2015,11,26,13,41,7.00
2015,11,26,13,42,7.00
2015,11,26,13,43,7.00
2015,11,26,13,44,7.00
2015,11,26,13,45,7.00
2015,11,26,13,46,7.00
2015,11,26,13,47,7.00
2015,11,26,13,48,7.00
2015,11,26,13,49,7.00
2015,11,26,13,50,7.00
2015,11,26,13,51,7.00
2015,11,26,13,52,7.00
2015,11,26,13,53,7.00
2015,11,26,13,54,6.90
2015,11,26,13,55,7.00
2015,11,26,13,56,7.00
2015,11,26,13,57,7.00
2015,11,26,13,58,7.10
2015,11,26,13,59,7.10
2015,11,26,14,00,7.10
2015,11,26,14,01,7.00
2015,11,26,14,02,7.00
2015,11,26,14,03,7.00
2015,11,26,14,04,7.00
2015,11,26,14,05,7.00
2015,11,26,14,06,6.90
2015,11,26,14,07,6.90
2015,11,26,14,08,6.90
2015,11,26,14,09,6.80
2015,11,26,14,10,6.80
2015,11,26,14,11,6.80
2015,11,26,14,12,6.80
2015,11,26,14,13,6.80
2015,11,26,14,14,6.80
2015,11,26,14,15,6.80
2015,11,26,14,16,6.80
2015,11,26,14,17,6.80
2015,11,26,14,18,6.80
2015,11,26,14,19,6.80
2015,11,26,14,20,6.80
2015,11,26,14,21,6.80
2015,11,26,14,22,6.80
2015,11,26,14,23,6.80
2015,11,26,14,24,6.80
2015,11,26,14,25,6.80
2015,11,26,14,26,6.80
2015,11,26,14,27,6.80
2015,11,26,14,28,6.80
2015,11,26,14,29,6.90
2015,11,26,14,30,6.90
2015,11,26,14,31,6.90
2015,11,26,14,32,6.90
2015,11,26,14,33,6.90
2015,11,26,14,34,6.90
2015,11,26,14,35,6.90
2015,11,26,14,36,6.90
2015,11,26,14,37,6.90
2015,11,26,14,38,6.90
2015,11,26,14,39,6.90
2015,11,26,14,40,6.80
2015,11,26,14,41,6.80
2015,11,26,14,42,6.80
2015,11,26,14,43,6.80
2015,11,26,14,44,6.80
2015,11,26,14,45,6.80
2015,11,26,14,46,6.80
2015,11,26,14,47,6.80
2015,11,26,14,48,6.80
2015,11,26,14,49,6.80
2015,11,26,14,50,6.80
2015,11,26,14,51,6.80
2015,11,26,14,52,6.80
2015,11,26,14,53,6.80
2015,11,26,14,54,6.80
2015,11,26,14,55,6.70
2015,11,26,14,56,6.70
2015,11,26,14,57,6.60
2015,11,26,14,58,6.60
2015,11,26,14,59,6.60
2015,11,26,15,00,6.50
2015,11,26,15,01,6.50
2015,11,26,15,02,6.50
2015,11,26,15,03,6.50
2015,11,26,15,04,6.40
2015,11,26,15,05,6.40
2015,11,26,15,06,6.40
2015,11,26,15,07,6.40
2015,11,26,15,08,6.40
2015,11,26,15,09,6.40
2015,11,26,15,10,6.40
2015,11,26,15,11,6.40
2015,11,26,15,12,6.30
2015,11,26,15,13,6.30
2015,11,26,15,14,6.30
2015,11,26,15,15,6.20
2015,11,26,15,16,6.20
2015,11,26,15,17,6.10
2015,11,26,15,18,6.10
2015,11,26,15,19,6.00
2015,11,26,15,20,6.00
2015,11,26,15,21,5.90
2015,11,26,15,22,5.90
2015,11,26,15,23,5.90
2015,11,26,15,24,5.80
2015,11,26,15,25,5.80
2015,11,26,15,26,5.80
2015,11,26,15,27,5.70
2015,11,26,15,28,5.70
2015,11,26,15,29,5.70
2015,11,26,15,30,5.60
2015,11,26,15,31,5.60
2015,11,26,15,32,5.60
2015,11,26,15,33,5.50
2015,11,26,15,34,5.50
2015,11,26,15,35,5.40
2015,11,26,15,36,5.40
2015,11,26,15,37,5.40
2015,11,26,15,38,5.30
2015,11,26,15,39,5.30
2015,11,26,15,40,5.30
2015,11,26,15,41,5.30
2015,11,26,15,42,5.20
2015,11,26,15,43,5.20
2015,11,26,15,44,5.20
2015,11,26,15,45,5.10
2015,11,26,15,46,5.10
2015,11,26,15,47,5.10
2015,11,26,15,48,5.00
2015,11,26,15,49,5.00
2015,11,26,15,50,4.90
2015,11,26,15,51,4.90
2015,11,26,15,52,4.90
2015,11,26,15,53,4.90
2015,11,26,15,54,4.90
2015,11,26,15,55,4.90
2015,11,26,15,56,4.90
2015,11,26,15,57,4.80
2015,11,26,15,58,4.80
2015,11,26,15,59,4.80
2015,11,26,16,00,4.80
2015,11,26,16,01,4.80
2015,11,26,16,02,4.80
2015,11,26,16,03,4.80
2015,11,26,16,04,4.80
2015,11,26,16,05,4.80
2015,11,26,16,06,4.80
2015,11,26,16,07,4.80
2015,11,26,16,08,4.80
2015,11,26,16,09,4.80
2015,11,26,16,10,4.80
2015,11,26,16,11,4.80
2015,11,26,16,12,4.70
2015,11,26,16,13,4.60
2015,11,26,16,14,4.40
2015,11,26,16,15,4.20
2015,11,26,16,16,4.10
2015,11,26,16,17,4.00
2015,11,26,16,18,3.90
2015,11,26,16,19,3.70
2015,11,26,16,20,3.70
2015,11,26,16,21,3.60
2015,11,26,16,22,3.50
2015,11,26,16,23,3.40
2015,11,26,16,24,3.30
2015,11,26,16,25,3.30
2015,11,26,16,26,3.20
2015,11,26,16,27,3.20
2015,11,26,16,28,3.10
2015,11,26,16,29,3.00
2015,11,26,16,30,3.00
2015,11,26,16,31,3.00
2015,11,26,16,32,3.00
2015,11,26,16,33,3.00
2015,11,26,16,34,2.90
2015,11,26,16,35,2.90
2015,11,26,16,36,2.90
2015,11,26,16,37,2.80
2015,11,26,16,38,2.80
2015,11,26,16,39,2.80
2015,11,26,16,40,2.80
2015,11,26,16,41,2.80
2015,11,26,16,42,2.80
2015,11,26,16,43,2.80
2015,11,26,16,44,2.80
2015,11,26,16,45,2.90
2015,11,26,16,46,2.90
2015,11,26,16,47,2.80
2015,11,26,16,48,2.70
2015,11,26,16,49,2.60
2015,11,26,16,50,2.50
2015,11,26,16,51,2.40
2015,11,26,16,52,2.30
2015,11,26,16,53,2.30
2015,11,26,16,54,2.30
2015,11,26,16,55,2.30
2015,11,26,16,56,2.40
2015,11,26,16,57,2.40
2015,11,26,16,58,2.40
2015,11,26,16,59,2.30
2015,11,26,17,00,2.30
2015,11,26,17,01,2.30
2015,11,26,17,02,2.30
2015,11,26,17,03,2.20
2015,11,26,17,04,2.20
2015,11,26,17,05,2.10
2015,11,26,17,06,2.00
2015,11,26,17,07,1.90
2015,11,26,17,08,1.80
2015,11,26,17,09,1.70
2015,11,26,17,10,1.60
2015,11,26,17,11,1.60
2015,11,26,17,12,1.50
2015,11,26,17,13,1.40
2015,11,26,17,14,1.40
2015,11,26,17,15,1.30
2015,11,26,17,16,1.30
2015,11,26,17,17,1.20
2015,11,26,17,18,1.20
2015,11,26,17,19,1.20
2015,11,26,17,20,1.10
2015,11,26,17,21,1.10
2015,11,26,17,22,1.10
2015,11,26,17,23,1.00
2015,11,26,17,24,1.00
2015,11,26,17,25,0.90
2015,11,26,17,26,0.80
2015,11,26,17,27,0.80
2015,11,26,17,28,0.70
2015,11,26,17,29,0.70
2015,11,26,17,30,0.70
2015,11,26,17,31,0.60
2015,11,26,17,32,0.60
2015,11,26,17,33,0.60
2015,11,26,17,34,0.60
2015,11,26,17,35,0.60
2015,11,26,17,36,0.60
2015,11,26,17,37,0.60
2015,11,26,17,38,0.70
2015,11,26,17,39,0.80
2015,11,26,17,40,0.80